Location: Unspecified
(0.0000°N, 0.0000°E)
Time: 19:12:36
(UTC+00:00)

Altair - Pass Details

Date: 26 November 2019
Orbit: 1502 x 1682 km, 47.2° (Epoch: 08 December)

Event Time Altitude Azimuth Distance (km) Brightness Sun altitude
Rises 22:21:48 0° 231° (SW) 4,835 10.6 -60.4°
Reaches altitude 10° 22:25:04 10° 235° (SW) 3,823 9.9 -60.9°
Enters shadow 22:26:19 15° 238° (WSW) 3,451 9.6 -61.1°
Maximum altitude 22:34:22 52° 309° (NW) 1,869 - -62.4°
Drops below altitude 10° 22:43:21 10° 24° (NNE) 3,683 - -63.8°
Sets 22:46:28 0° 29° (NNE) 4,647 - -64.3°
